Flag for Colombia

Past Weather in Florencia, Colombia — Yesterday and Last 2 Weeks

Now
79 °F

Passing clouds.


Feels Like: 81 °F
Forecast: 90 / 70 °F
Wind: 10 mph from Northwest

Location: Cali / Alfonso Bonillaaragon
Current Time: Oct 22, 2020 at 7:49:38 pm
Latest Report: Oct 22, 2020 at 7:00 pm
Visibility: N/A
Pressure29.88 "Hg
Humidity: 70%
Dew Point: 68 °F
Location of FlorenciaLocation

Past Weather in Florencia — Graph

°F

Florencia Temperature Yesterday

Maximum temperature yesterday: 88 °F (at 1:00 pm)
Minimum temperature yesterday: 68 °F (at 5:30 am)
Average temperature yesterday: 76 °F

High & Low Weather Summary for the Past Weeks

 TemperatureHumidityPressure
High91 °F (Oct 12, 2:00 pm)100% (Oct 8, 7:00 am)30.11 "Hg (Oct 8, 7:00 am)
Low63 °F (Oct 9, 6:00 am)36% (Oct 12, 2:00 pm)29.78 "Hg (Oct 15, 5:00 pm)
Average76 °F74%29.96 "Hg
* Reported Oct 7 6:00 pm — Oct 22 6:00 pm, Florencia. Weather by CustomWeather, © 2020

Note: Actual official high and low records may vary slightly from our data, if they occured in-between our weather recording intervals... More about our weather records

Florencia Weather History for the Previous 24 Hours

Scroll right to see more
 ConditionsComfort  
Time TempWeatherWind HumidityBarometerVisibility
6:00 pm
Thu, Oct 22
82 °FPassing clouds.12 mph62%29.86 "HgN/A
5:00 pm88 °FScattered clouds.5 mph46%29.85 "HgN/A
4:00 pm90 °FScattered clouds.6 mph46%29.85 "HgN/A
3:00 pm90 °FScattered clouds.5 mph46%29.87 "HgN/A
2:00 pm88 °FScattered clouds.7 mph49%29.90 "HgN/A
1:00 pm88 °FScattered clouds.7 mph49%29.93 "HgN/A
12:00 pm88 °FScattered clouds.5 mph49%29.98 "HgN/A
11:00 am84 °FScattered clouds.7 mph58%30.03 "HgN/A
10:00 am84 °FScattered clouds.5 mph58%30.04 "HgN/A
9:00 am77 °FScattered clouds.5 mph69%30.03 "HgN/A
8:00 am75 °FScattered clouds.5 mph83%30.02 "HgN/A
7:00 am70 °FScattered clouds.2 mph94%30.01 "HgN/A
6:00 am66 °FPartly sunny.No wind94%30.00 "HgN/A
5:30 am66 °FPassing clouds.No wind88%30.00 "HgN/A
5:00 am66 °FPartly cloudy.No wind88%29.98 "HgN/A
4:00 am68 °FPartly cloudy.2 mph88%29.96 "HgN/A
3:00 am66 °FPassing clouds.3 mph88%29.95 "HgN/A
2:00 am68 °FPassing clouds.3 mph88%29.97 "HgN/A
1:00 am68 °FPassing clouds.No wind88%29.97 "HgN/A
12:00 am68 °FPassing clouds.No wind88%29.99 "HgN/A
11:00 pm
Wed, Oct 21
70 °FPassing clouds.3 mph83%30.00 "HgN/A
10:00 pm72 °FPassing clouds.5 mph83%30.00 "HgN/A
9:00 pm72 °FPassing clouds.2 mph83%29.98 "HgN/A
8:00 pm75 °FPassing clouds.5 mph74%29.97 "HgN/A
7:00 pm77 °FPassing clouds.9 mph69%29.92 "HgN/A
Weather by CustomWeather, © 2020

See weather overview